Location: Barcelona
(41.3829°N, 2.1774°E)
Time: 18:07:08
(UTC+00:00)

ISS - Pass Details

Date: 15 October 2025
Orbit: 414 x 421 km, 51.6° (Epoch: 07 November)

Event Time Altitude Azimuth Distance (km) Brightness Sun altitude
Rises 05:48:29 0° 231° (SW) 2,352 -0.4 -3.6°
Reaches altitude 10° 05:50:34 10° 230° (SW) 1,494 -1.3 -3.2°
Maximum altitude 05:53:55 81° 144° (SE) 430 -3.6 -2.6°
Drops below altitude 10° 05:57:18 10° 56° (NE) 1,508 -0.2 -1.9°
Sets 05:59:25 0° 56° (NE) 2,377 0.8 -1.5°
